Wind_Speed
11 10 11 10 11 11 12 12 13 12 12 13 13 13 12 13 13 13 13 14 14 14 15 16 17 17 17 17 18 19 20 21 21 21 22 22 22 22
12 12 12 12 12 12 13 13 13 13 13 13 13 13 13 13 13 13 14 15 16 16 17 17 18 18 18 19 19 20 20 21 21 22 22 23 23 24
13 13 13 13 13 13 13 13 13 13 13 13 13 13 13 14 14 15 15 16 17 17 18 18 18 19 19 20 20 20 21 22 23 23 24 25 25 26
15 15 15 14 14 14 13 13 13 13 13 13 13 14 14 15 15 16 16 17 17 18 18 18 19 20 20 20 20 21 22 23 24 24 25 26 26 26
16 16 16 16 15 15 14 14 14 14 14 15 15 15 16 16 16 16 17 17 18 18 18 18 19 20 20 21 21 22 24 24 24 25 25 26 26 26
17 17 17 17 16 16 16 15 16 16 16 16 17 17 17 17 17 18 18 19 18 18 19 19 20 21 21 22 23 24 24 25 25 25 26 27 28 28
18 18 18 18 18 17 17 17 17 17 17 18 18 18 18 19 19 20 20 20 20 20 20 21 22 23 23 23 24 25 25 26 26 27 28 28 29 29
19 19 19 18 18 18 18 19 19 18 18 19 19 20 20 20 21 21 21 21 21 21 22 23 23 24 25 25 25 26 26 27 27 28 28 29 29 30
19 19 19 19 19 19 19 18 19 19 19 20 20 21 21 21 21 21 22 22 23 23 24 24 25 25 26 26 26 27 27 28 28 29 29 30 30 31
20 20 20 20 20 20 20 20 20 20 20 21 22 22 21 22 22 22 23 23 24 24 25 25 25 25 25 26 26 27 28 28 29 30 30 31 31 31
20 21 21 21 21 21 21 21 21 21 22 22 22 22 22 23 23 23 23 24 24 24 25 25 25 25 26 26 27 28 29 30 30 31 31 31 31 31
20 20 21 21 21 21 21 21 22 22 22 23 22 22 22 23 24 24 24 24 24 24 25 26 26 26 26 26 28 29 30 31 32 32 33 33 33 33
20 20 21 21 22 22 22 22 23 23 23 23 23 23 23 23 24 25 25 26 26 26 26 27 27 28 28 27 28 30 31 32 32 33 34 34 34 34
21 21 21 22 23 23 23 23 24 24 24 24 24 24 24 25 25 26 26 26 26 26 27 28 28 29 30 30 30 31 32 33 34 34 35 35 36 36
22 23 22 23 24 25 25 25 25 25 25 25 25 25 26 27 27 27 27 28 27 27 27 28 30 30 31 32 32 33 34 34 35 35 36 37 37 38
24 24 25 25 25 26 26 26 26 26 26 26 26 26 27 27 27 27 28 28 28 29 29 30 32 32 33 33 34 34 35 35 36 37 38 38 39 40
25 25 26 26 26 26 26 26 26 26 26 27 27 27 27 28 28 28 29 29 29 29 30 31 32 33 34 35 35 35 36 37 38 39 39 40 41 42
26 26 26 27 27 27 26 26 26 27 27 28 28 28 28 28 28 28 28 29 30 30 30 31 32 34 35 36 37 37 38 39 40 40 41 41 42 43
26 26 27 28 28 28 27 27 27 27 28 28 29 28 29 29 29 29 29 29 30 31 31 32 33 34 35 36 37 38 39 40 41 42 43 43 44 45
27 27 28 28 28 28 28 28 28 28 28 28 28 29 29 29 29 29 29 30 30 31 32 33 34 35 36 37 38 39 41 42 43 43 44 45 46 46
28 28 29 29 29 29 29 29 29 29 29 29 29 29 29 29 29 30 30 30 31 32 33 34 36 37 38 39 40 41 42 43 44 45 45 46 47 47
30 30 30 30 30 30 30 30 30 30 30 30 30 30 31 31 31 31 31 32 33 34 35 36 38 38 39 40 42 43 43 44 45 46 46 47 47 46
31 31 31 30 31 31 31 31 31 31 31 31 31 32 31 32 32 33 33 34 35 36 37 38 38 39 40 41 42 43 44 45 45 45 45 47 47 47
Wind_Direction
285 285 282 281 281 282 285 287 288 288 288 290 291 294 295 295 296 296 295 295 296 297 298 300 300 299 299 299 299 297 296 296 296 298 299 299 300 298
284 284 283 281 283 286 287 288 286 287 288 288 288 290 291 291 295 297 296 296 297 297 299 300 299 298 298 299 298 298 298 298 298 298 300 300 301 301
284 283 283 284 283 283 285 286 285 286 288 288 286 291 293 291 293 295 296 297 298 297 299 301 301 300 300 299 298 297 297 298 298 299 300 300 300 301
281 282 283 283 284 283 283 283 284 284 286 287 288 292 293 293 293 295 297 297 296 297 299 300 302 303 302 300 299 299 299 300 299 299 299 299 300 301
280 281 282 283 283 283 282 282 283 283 284 287 289 292 293 294 294 295 297 298 299 300 301 302 303 304 303 302 301 300 301 302 302 301 301 301 301 301
279 280 280 280 280 281 281 280 281 281 283 286 288 291 292 293 293 294 295 297 298 300 301 301 302 303 302 302 301 302 302 301 302 303 302 302 302 301
278 278 279 279 278 279 280 279 281 281 281 284 286 288 290 290 291 292 293 295 296 298 300 300 300 301 302 301 301 302 302 302 302 303 303 303 302 301
276 276 278 279 277 278 279 279 280 282 282 283 283 286 287 288 290 291 292 293 296 296 298 300 301 301 302 301 302 301 302 303 303 303 303 303 303 302
274 274 277 278 278 278 279 281 281 283 285 285 285 286 287 288 290 291 291 291 294 295 296 298 300 301 302 302 302 302 302 303 303 303 304 304 303 302
274 274 274 275 275 275 277 279 282 284 286 286 288 288 286 288 291 291 292 293 294 296 297 298 300 301 301 301 302 302 303 304 304 304 304 304 303 302
274 272 271 272 272 273 276 278 281 282 285 286 288 289 289 290 291 292 294 294 294 295 297 298 299 301 301 302 302 302 303 304 304 304 305 304 304 303
275 274 273 271 271 272 275 278 281 283 284 285 287 288 289 290 290 291 293 294 295 295 296 298 299 300 301 301 301 302 303 304 304 304 304 304 303 303
276 275 274 273 273 275 277 279 280 282 283 285 287 287 287 289 291 292 293 294 295 295 296 297 299 299 300 301 301 302 303 304 304 304 304 304 303 302
276 275 274 272 274 275 277 279 280 281 282 284 285 286 286 288 291 293 293 294 295 296 298 299 300 301 301 301 301 302 302 303 304 305 305 304 303 302
275 274 273 274 274 274 275 277 280 281 282 283 284 286 288 288 289 291 293 293 294 295 297 299 301 302 302 303 303 303 303 303 304 304 304 304 303 302
278 274 274 275 275 276 276 277 280 281 282 282 284 285 286 288 289 289 291 293 293 295 297 299 301 302 303 304 304 304 304 304 304 304 304 304 304 303
280 278 276 275 275 275 277 278 280 282 282 283 283 284 286 287 287 288 290 292 293 295 297 299 301 302 303 304 304 304 304 304 304 304 304 304 304 304
280 278 276 277 277 276 277 278 280 281 282 283 283 284 285 287 287 288 290 292 294 296 297 299 300 301 303 304 305 305 305 304 305 306 305 305 306 306
280 279 278 278 278 277 276 278 280 282 283 283 284 284 285 286 287 288 290 292 294 296 298 299 301 302 303 304 306 306 306 306 307 308 307 307 307 307
280 280 279 278 277 277 277 279 280 282 283 284 284 284 285 285 286 287 289 291 294 296 298 300 301 302 304 305 306 307 307 307 307 308 308 308 308 307
280 279 279 278 277 277 277 279 280 280 282 283 284 285 285 286 286 287 289 291 293 295 297 299 301 303 304 305 306 307 307 308 308 308 308 309 308 308
279 279 279 278 277 277 277 278 279 280 282 283 284 284 284 285 287 287 289 291 292 294 296 299 300 302 303 305 306 307 307 308 309 309 310 310 309 309
280 279 278 277 277 277 277 278 279 280 281 282 283 283 284 285 287 287 289 291 292 294 297 299 300 302 303 305 306 307 308 308 308 309 310 311 310 310
Height
5836 5836 5836 5836 5836 5836 5835 5835 5835 5835 5835 5834 5834 5833 5832 5832 5831 5830 5829 5829 5828 5827 5826 5825 5824 5823 5821 5820 5819 5817 5815 5814 5812 5810 5808 5806 5804 5801
5833 5833 5833 5833 5833 5832 5832 5831 5831 5831 5831 5831 5830 5830 5829 5828 5828 5827 5826 5825 5824 5823 5822 5821 5820 5818 5817 5815 5814 5812 5810 5808 5806 5804 5802 5800 5798 5795
5830 5830 5830 5829 5829 5829 5828 5828 5828 5828 5827 5827 5827 5826 5826 5825 5824 5823 5822 5822 5820 5819 5818 5817 5815 5814 5812 5810 5808 5806 5804 5802 5800 5798 5796 5794 5791 5789
5826 5826 5826 5826 5825 5825 5825 5824 5824 5824 5824 5824 5823 5823 5822 5821 5820 5820 5819 5818 5816 5815 5814 5812 5810 5809 5807 5805 5802 5800 5798 5796 5794 5792 5789 5787 5785 5782
5822 5822 5822 5822 5821 5821 5821 5821 5820 5820 5820 5820 5819 5818 5818 5817 5816 5815 5814 5813 5812 5811 5809 5807 5805 5803 5801 5799 5797 5795 5792 5790 5788 5785 5783 5780 5777 5775
5818 5817 5817 5817 5817 5817 5817 5816 5816 5816 5815 5815 5815 5814 5813 5812 5812 5811 5810 5809 5807 5806 5804 5802 5800 5798 5796 5793 5791 5789 5786 5784 5781 5778 5776 5773 5770 5767
5812 5812 5812 5812 5812 5812 5812 5811 5811 5811 5810 5810 5810 5809 5808 5807 5806 5805 5804 5803 5802 5801 5799 5797 5795 5792 5790 5787 5785 5782 5780 5777 5774 5771 5768 5765 5762 5759
5807 5807 5807 5807 5807 5806 5806 5806 5806 5806 5805 5805 5804 5804 5803 5802 5801 5799 5798 5797 5796 5795 5793 5791 5789 5786 5784 5781 5778 5776 5773 5770 5767 5764 5761 5757 5754 5751
5801 5801 5801 5801 5801 5801 5800 5800 5800 5800 5800 5799 5798 5798 5797 5796 5794 5793 5792 5791 5790 5788 5786 5784 5782 5780 5777 5774 5772 5769 5766 5763 5760 5756 5753 5749 5746 5742
5794 5794 5795 5795 5795 5795 5795 5794 5794 5794 5793 5793 5792 5791 5790 5789 5788 5787 5786 5784 5783 5781 5779 5778 5775 5773 5770 5767 5764 5761 5758 5755 5752 5748 5745 5741 5737 5734
5788 5788 5788 5788 5788 5788 5788 5788 5788 5787 5786 5786 5785 5784 5783 5782 5781 5780 5779 5778 5776 5775 5772 5770 5768 5766 5763 5760 5757 5754 5751 5747 5744 5740 5736 5733 5729 5725
5781 5781 5781 5781 5781 5781 5781 5781 5781 5780 5780 5779 5778 5777 5776 5775 5774 5773 5771 5770 5769 5768 5765 5763 5761 5758 5756 5753 5750 5746 5743 5739 5735 5732 5728 5724 5720 5717
5775 5775 5774 5774 5774 5774 5774 5774 5774 5773 5772 5772 5771 5770 5769 5768 5767 5765 5764 5762 5761 5760 5758 5755 5753 5750 5748 5745 5742 5738 5735 5731 5727 5723 5719 5715 5711 5708
5768 5768 5767 5767 5767 5767 5767 5767 5766 5766 5765 5765 5764 5763 5762 5761 5760 5758 5756 5755 5753 5752 5749 5747 5745 5742 5739 5737 5734 5731 5727 5723 5719 5715 5710 5706 5702 5698
5760 5760 5760 5760 5760 5760 5759 5759 5759 5758 5758 5757 5756 5755 5754 5753 5752 5750 5748 5747 5745 5743 5741 5739 5736 5733 5730 5728 5725 5721 5718 5714 5710 5705 5701 5697 5692 5688
5753 5753 5752 5752 5752 5752 5751 5751 5751 5750 5749 5749 5748 5747 5746 5745 5743 5742 5740 5739 5737 5735 5733 5731 5728 5725 5722 5719 5715 5712 5708 5704 5700 5696 5691 5686 5682 5677
5745 5745 5745 5744 5744 5744 5743 5743 5742 5742 5741 5740 5739 5739 5738 5736 5735 5733 5732 5730 5729 5727 5725 5722 5719 5716 5713 5709 5706 5702 5698 5694 5690 5685 5681 5676 5671 5666
5738 5737 5737 5736 5736 5735 5735 5734 5734 5733 5732 5731 5731 5730 5729 5727 5726 5724 5723 5721 5719 5718 5716 5714 5711 5707 5704 5700 5697 5692 5688 5684 5679 5674 5669 5664 5660 5654
5729 5729 5728 5728 5727 5727 5726 5726 5725 5724 5723 5723 5722 5721 5719 5718 5717 5715 5713 5712 5710 5709 5707 5704 5701 5698 5695 5691 5688 5682 5677 5673 5668 5662 5657 5652 5647 5642
5721 5720 5719 5719 5718 5717 5717 5717 5716 5715 5714 5714 5712 5711 5710 5709 5707 5706 5704 5703 5701 5699 5697 5694 5691 5688 5684 5681 5677 5672 5666 5661 5656 5651 5645 5640 5634 5628
5712 5711 5710 5709 5709 5708 5708 5707 5707 5706 5705 5704 5703 5702 5701 5699 5698 5697 5695 5693 5691 5689 5687 5684 5681 5677 5673 5669 5665 5661 5656 5650 5644 5638 5633 5627 5621 5615
5703 5702 5701 5700 5699 5699 5698 5698 5697 5696 5695 5694 5693 5692 5691 5690 5688 5687 5685 5683 5681 5679 5676 5673 5669 5666 5662 5658 5654 5649 5644 5639 5632 5626 5619 5613 5607 5601
5693 5692 5691 5690 5689 5689 5688 5688 5687 5686 5686 5685 5684 5682 5681 5680 5678 5677 5675 5673 5670 5668 5665 5662 5658 5655 5650 5646 5642 5637 5632 5626 5620 5615 5608 5601 5594 5588